Weather History for McCall, ID

Change the Weather History Date:

Thursday, December 6, 2012

  Actual Average Record
Temperature  
Mean Temperature 28 °F 20 °F  
Max Temperature 31 °F 28 °F 58 °F (1939)
Min Temperature 25 °F 12 °F -8 °F (1972)
Degree Days  
Heating Degree Days 37 45  
Month to date heating degree days 184 266  
Since 1 July heating degree days 2236 2904  
Cooling Degree Days 0 0  
Month to date cooling degree days 0 0  
Year to date cooling degree days 172 25  
Moisture  
Dew Point 26 °F    
Average Humidity 89    
Maximum Humidity 100    
Minimum Humidity 78    
Precipitation  
Precipitation T in 0.06 in 0.91 in (1982)
Month to date precipitation 2.87 0.35  
Year to date precipitation 29.70 18.39  
Sea Level Pressure  
Sea Level Pressure 30.05 in    
Wind  
Wind Speed 2 mph (WNW)    
Max Wind Speed 9 mph    
Max Gust Speed 14 mph    
Visibility 8 miles    
Events Fog , Snow    
T = Trace of Precipitation, MM = Missing Value Source: NWS Daily Summary

Daily Weather History Graph

Daily Weather History Graph

Search for Another Location

Airport:

Trip Planner

Search our weather history database for the weather conditions in past years. The results will help you decide how hot, cold, wet, or windy it might be!

Date:

Astronomy

Dec. 06, 2012 Rise Set
Actual Time 8:08 AM MST 5:03 PM MST
Civil Twilight 7:34 AM MST 5:36 PM MST
Nautical Twilight 6:57 AM MST 6:13 PM MST
Astronomical Twilight 6:22 AM MST 6:48 PM MST
Moon 12:11 AM MST (12/6) 12:47 PM MST (12/6)
Length of Visible Light 10h 02m
Length of Day
8h 55m
Waning Gibbous, 48% of the Moon is Illuminated
Dec 6
Waning Gibbous
Dec 13
New
Dec 19
First Quarter
Dec 28
Full
Jan 4
Last Quarter

Hourly Weather History & Observations

Time (MST) Temp. Windchill Dew Point Humidity Pressure Visibility Wind Dir Wind Speed Gust Speed Precip Events Conditions
12:51 AM 28.9 °F - 28.0 °F 96% 30.10 in 0.2 mi Calm Calm - N/A Fog Light Freezing Fog
1:51 AM 28.9 °F 25.2 °F 28.0 °F 96% 30.09 in 0.5 mi NE 3.5 mph - N/A Fog Light Freezing Fog
2:44 AM 28.4 °F - 28.4 °F 100% 30.05 in 1.2 mi Calm Calm - N/A   Overcast
2:51 AM 28.9 °F - 28.0 °F 96% 30.09 in 1.2 mi Calm Calm - N/A   Overcast
2:56 AM 28.4 °F - 28.4 °F 100% 30.05 in 0.8 mi Calm Calm - N/A   Mist
3:51 AM 28.9 °F - 28.0 °F 96% 30.09 in 0.5 mi Calm Calm - N/A Fog Light Freezing Fog
4:51 AM 28.9 °F - 28.0 °F 96% 30.09 in 0.8 mi Calm Calm - N/A   Mist
5:51 AM 28.9 °F - 28.0 °F 96% 30.09 in 0.5 mi Calm Calm - N/A Fog Light Freezing Fog
6:11 AM 28.4 °F - 28.4 °F 100% 30.02 in 1.0 mi Calm Calm - N/A   Overcast
6:51 AM 28.9 °F - 28.0 °F 96% 30.10 in 2.5 mi Calm Calm - N/A   Overcast
6:58 AM 28.4 °F - 28.4 °F 100% 30.02 in 9.0 mi Calm Calm - N/A   Overcast
7:07 AM 28.4 °F - 28.4 °F 100% 30.02 in 10.0 mi Calm Calm - N/A   Overcast
7:16 AM 28.4 °F - 28.4 °F 100% 30.02 in 10.0 mi Calm Calm - N/A   Overcast
7:51 AM 30.0 °F - 28.9 °F 96% 30.09 in 10.0 mi Calm Calm - N/A   Overcast
8:51 AM 30.0 °F - 28.9 °F 96% 30.09 in 10.0 mi Calm Calm - N/A   Overcast
9:51 AM 30.0 °F - 28.9 °F 96% 30.09 in 9.0 mi Calm Calm - N/A   Overcast
10:51 AM 30.0 °F - 28.0 °F 92% 30.10 in 10.0 mi Calm Calm - N/A   Overcast
11:51 AM 30.0 °F 25.2 °F 28.0 °F 92% 30.08 in 10.0 mi WNW 4.6 mph - N/A   Overcast
12:51 PM 30.0 °F 26.5 °F 27.0 °F 88% 30.06 in 10.0 mi WNW 3.5 mph - N/A   Overcast
1:06 PM 30.2 °F 25.4 °F 26.6 °F 86% 29.99 in 10.0 mi West 4.6 mph - N/A   Overcast
1:38 PM 30.2 °F 23.4 °F 24.8 °F 80% 29.98 in 10.0 mi NW 6.9 mph - N/A   Overcast
1:51 PM 30.0 °F - 25.0 °F 82% 30.05 in 10.0 mi Calm Calm - N/A   Overcast
2:11 PM 30.2 °F - 24.8 °F 80% 29.96 in 10.0 mi Calm Calm - N/A   Overcast
2:26 PM 30.2 °F 26.7 °F 24.8 °F 80% 29.96 in 10.0 mi WNW 3.5 mph - N/A   Overcast
2:51 PM 30.0 °F 25.2 °F 26.1 °F 85% 30.04 in 10.0 mi West 4.6 mph - N/A   Overcast
3:30 PM 30.2 °F 25.4 °F 24.8 °F 80% 29.95 in 10.0 mi West 4.6 mph - N/A   Overcast
3:49 PM 28.4 °F 22.2 °F 24.8 °F 86% 29.96 in 10.0 mi West 5.8 mph - N/A   Overcast
3:51 PM 28.9 °F 22.8 °F 25.0 °F 85% 30.04 in 10.0 mi West 5.8 mph - N/A   Overcast
4:08 PM 30.2 °F 26.7 °F 24.8 °F 80% 29.96 in 10.0 mi West 3.5 mph - N/A   Overcast
4:17 PM 28.4 °F 21.2 °F 24.8 °F 86% 29.96 in 10.0 mi WNW 6.9 mph - N/A   Overcast
4:51 PM 30.0 °F 25.2 °F 25.0 °F 82% 30.04 in 10.0 mi West 4.6 mph - N/A   Overcast
5:51 PM 28.9 °F 22.8 °F 23.0 °F 78% 30.07 in 10.0 mi West 5.8 mph - N/A   Overcast
6:51 PM 28.9 °F 23.9 °F 24.1 °F 82% 30.08 in 9.0 mi WNW 4.6 mph - 0.00 in Snow Light Snow
7:51 PM 28.0 °F - 23.0 °F 81% 30.08 in 10.0 mi Calm Calm - 0.00 in   Scattered Clouds
8:51 PM 26.1 °F - 23.0 °F 88% 30.09 in 10.0 mi Calm Calm - N/A   Overcast
9:51 PM 26.1 °F - 24.1 °F 92% 30.11 in 10.0 mi Calm Calm - N/A   Overcast
10:51 PM 26.1 °F - 24.1 °F 92% 30.10 in 10.0 mi Calm Calm - N/A   Overcast
11:51 PM 26.1 °F - 23.0 °F 88% 30.11 in 10.0 mi Calm Calm - N/A   Overcast